FW1662 Weather Reports


time (UTC)temp
F
wind
direction
speed
knots
gust
knots
rain 1hr
in
rain 24hr
in
rain mn
in
humidity
%
barometer
mb
20260504194506 68 207 5.2 13.9 0.00 0.00 0.00 52 1010.3
20260504193001 68 163 3.5 16.5 0.00 0.00 0.00 50 1010.4
20260504191605 68 219 5.2 16.5 0.00 0.00 0.00 48 1010.5
20260504190116 68 259 11.3 21.7 0.00 0.00 0.00 47 1010.6
20260504184625 69 215 7.0 16.5 0.00 0.00 0.00 43 1010.6
20260504183056 70 302 3.5 17.4 0.00 0.00 0.00 43 1010.9
20260504181554 69 194 7.0 13.9 0.00 0.00 0.00 43 1010.9
20260504180054 69 162 7.8 14.8 0.00 0.00 0.00 43 1011.0
20260504174550 69 237 7.0 13.9 0.00 0.00 0.00 43 1011.1
20260504173048 68 192 7.8 13.9 0.00 0.00 0.00 43 1011.2
20260504171547 69 264 4.3 11.3 0.00 0.00 0.00 44 1011.6
20260504120119 56 297 1.7 9.6 0.00 0.00 0.00 58 1014.0
20260504081535 49 196 0.9 3.5 0.00 0.00 0.00 59 1013.2
20260504050013 48 197 1.7 4.3 0.00 0.00 0.00 60 1012.5
20260504044512 48 188 1.7 3.5 0.00 0.00 0.00 60 1012.5
20260504043009 48 171 1.7 3.5 0.00 0.00 0.00 61 1012.3
20260504041506 47 188 0.9 2.6 0.00 0.00 0.00 62 1012.4
20260504040004 47 191 0.9 1.7 0.00 0.00 0.00 63 1012.4
20260504034505 47 181 0.9 2.6 0.00 0.00 0.00 63 1012.4
20260504033007 46 159 0.9 1.7 0.00 0.00 0.00 64 1012.3
20260504031505 46 199 0.9 2.6 0.00 0.00 0.00 66 1012.4
20260504030001 47 210 0.9 2.6 0.00 0.00 0.00 64 1012.3
20260504024500 47 204 1.7 2.6 0.00 0.00 0.00 64 1012.3
20260504023100 47 204 0.9 1.7 0.00 0.00 0.00 63 1012.5
20260504021559 47 207 1.7 2.6 0.00 0.00 0.00 62 1012.5
20260504020059 48 205 1.7 3.5 0.00 0.00 0.00 60 1012.4
20260504014559 48 205 1.7 3.5 0.00 0.00 0.00 59 1012.4
20260504013107 49 211 1.7 3.5 0.00 0.00 0.00 58 1012.1
20260504011554 49 203 1.7 2.6 0.00 0.00 0.00 57 1012.0
20260504010055 50 215 0.9 2.6 0.00 0.00 0.00 56 1011.8
20260504004603 51 207 0.9 1.7 0.00 0.00 0.00 52 1011.7
20260504003049 52 219 0.9 1.7 0.00 0.00 0.00 48 1011.5
20260504001549 54 267 0.0 0.9 0.00 0.00 0.00 46 1011.2
20260504000050 55 309 0.0 1.7 0.00 0.00 0.00 42 1011.1
20260503234547 57 319 0.0 3.5 0.00 0.00 0.00 38 1010.9
20260503233047 58 279 0.0 3.5 0.00 0.00 0.00 36 1010.7
20260503231552 59 301 0.0 7.8 0.00 0.00 0.00 35 1010.5
20260503230050 58 320 0.9 8.7 0.00 0.00 0.00 35 1010.4
20260503224545 58 307 2.6 7.8 0.00 0.00 0.00 34 1010.4
20260503223044 58 314 2.6 9.6 0.00 0.00 0.00 35 1010.3
20260503221550 58 322 4.3 12.2 0.00 0.00 0.00 35 1010.2
20260503220044 59 314 2.6 10.4 0.00 0.00 0.00 34 1010.3
20260503214542 59 307 0.9 13.0 0.00 0.00 0.00 36 1010.2
20260503213043 59 325 3.5 13.0 0.00 0.00 0.00 34 1010.1
20260503211542 58 321 3.5 14.8 0.00 0.00 0.00 35 1010.0
20260503210039 59 15 2.6 11.3 0.00 0.00 0.00 37 1010.0
20260503204539 59 349 3.5 10.4 0.00 0.00 0.00 36 1010.2
20260503203039 58 323 4.3 11.3 0.00 0.00 0.00 37 1010.0
20260503201536 58 44 2.6 10.4 0.00 0.00 0.00 38 1010.1
20260503200034 58 6 2.6 9.6 0.00 0.00 0.00 38 1010.2